Sarasota, FL

8:42 PM EST on November 17, 2019 (GMT -0500)
Sarasota-bradenton

Weather History for KSRQ - September, 2019

Change the Weather History Date:

Tuesday, September 10, 2019

  Actual Average Record
Temperature  
Mean Temperature 87 °F 82 °F  
Max Temperature 95 °F 89 °F 97 °F (1948)
Min Temperature 79 °F 75 °F 64 °F (1963)
Degree Days  
Heating Degree Days 0 0  
Month to date heating degree days 0 0  
Since 1 July heating degree days 0 0  
Cooling Degree Days 22 17  
Month to date cooling degree days 218 170  
Year to date cooling degree days 3076 2467  
Growing Degree Days 37 (Base 50)    
Moisture  
Dew Point 73 °F    
Average Humidity 68    
Maximum Humidity 91    
Minimum Humidity 43    
Precipitation  
Precipitation 0.00 in 0.25 in 5.31 in (2017)
Month to date precipitation 0.83 3.12  
Year to date precipitation 42.22 41.45  
Sea Level Pressure  
Sea Level Pressure 30.11 in    
Wind  
Wind Speed 6 mph ()    
Max Wind Speed 17 mph    
Max Gust Speed 22 mph    
Visibility 10.0 miles    
Events      
T = Trace of Precipitation, MM = Missing Value Source: Averaged Metar Reports

Daily Weather History Graph

Daily Weather History Graph

Search for Another Location

Airport or City:

Astronomy

Sep. 10, 2019 Rise Set
Actual Time 7:13 AM EDT 7:40 PM EDT
Civil Twilight 6:49 AM EDT 8:04 PM EDT
Nautical Twilight 6:22 AM EDT 8:31 PM EDT
Astronomical Twilight 5:54 AM EDT 8:59 PM EDT
Moon 5:55 PM EDT (9/10) 4:01 AM EDT (9/10)
Length of Visible Light 13h 14m
Length of Day
12h 27m
Waxing Gibbous, 89% of the Moon is Illuminated
Sep 10
Waxing Gibbous
Sep 14
Full
Sep 21
Last Quarter
Sep 28
New
Oct 5
First Quarter

Hourly Weather History & Observations

Time (EDT) Temp. Heat Index Dew Point Humidity Pressure Visibility Wind Dir Wind Speed Gust Speed Precip Events Conditions
12:53 AM 80.1 °F 85.1 °F 75.0 °F 85% 30.09 in 10.0 mi Calm Calm - N/A   Clear
1:53 AM 79.0 °F - 75.9 °F 90% 30.10 in 10.0 mi NE 6.9 mph - N/A   Clear
2:53 AM 80.1 °F 85.4 °F 75.9 °F 87% 30.07 in 10.0 mi East 5.8 mph - N/A   Clear
3:53 AM 80.1 °F 85.4 °F 75.9 °F 87% 30.07 in 10.0 mi East 6.9 mph - N/A   Clear
4:53 AM 79.0 °F - 75.9 °F 90% 30.09 in 10.0 mi ENE 5.8 mph - N/A   Clear
5:53 AM 79.0 °F - 75.9 °F 90% 30.10 in 10.0 mi ENE 4.6 mph - N/A   Clear
6:53 AM 79.0 °F - 75.9 °F 90% 30.11 in 10.0 mi East 6.9 mph - N/A   Clear
7:53 AM 80.1 °F 85.4 °F 75.9 °F 87% 30.14 in 10.0 mi East 5.8 mph - N/A   Clear
8:53 AM 82.9 °F 91.8 °F 77.0 °F 82% 30.16 in 10.0 mi East 9.2 mph - N/A   Clear
9:53 AM 86.0 °F 96.9 °F 77.0 °F 74% 30.16 in 10.0 mi East 10.4 mph - N/A   Clear
10:53 AM 88.0 °F 98.5 °F 75.9 °F 67% 30.16 in 10.0 mi East 10.4 mph - N/A   Clear
11:53 AM 90.0 °F 97.9 °F 73.0 °F 57% 30.15 in 10.0 mi East 9.2 mph - N/A   Partly Cloudy
12:53 PM 91.9 °F 98.4 °F 71.1 °F 50% 30.14 in 10.0 mi East 8.1 mph - N/A   Scattered Clouds
1:53 PM 93.9 °F 102.1 °F 72.0 °F 49% 30.12 in 10.0 mi ENE 8.1 mph - N/A   Partly Cloudy
2:53 PM 93.9 °F 100.3 °F 70.0 °F 46% 30.10 in 10.0 mi NE 10.4 mph - N/A   Scattered Clouds
3:53 PM 93.9 °F 99.1 °F 69.1 °F 44% 30.09 in 10.0 mi ENE 12.7 mph - N/A   Partly Cloudy
4:53 PM 93.9 °F 98.6 °F 68.0 °F 43% 30.08 in 10.0 mi East 11.5 mph - N/A   Partly Cloudy
5:53 PM 93.9 °F 98.6 °F 68.0 °F 43% 30.07 in 10.0 mi East 13.8 mph - N/A   Clear
6:53 PM 91.0 °F 95.6 °F 69.1 °F 48% 30.06 in 10.0 mi East 8.1 mph - N/A   Clear
7:53 PM 89.1 °F 93.7 °F 69.1 °F 52% 30.07 in 10.0 mi East 9.2 mph - N/A   Clear
8:53 PM 87.1 °F 92.8 °F 71.1 °F 59% 30.09 in 10.0 mi East 10.4 mph - N/A   Clear
10:53 PM 82.9 °F 88.0 °F 72.0 °F 69% 30.12 in 10.0 mi East 12.7 mph - N/A   Clear
11:53 PM 82.0 °F 87.4 °F 73.0 °F 74% 30.12 in 10.0 mi East 9.2 mph - N/A   Clear